CAPE
36 144 254 434 775 886 913 945 1007 1319 1330 1201 1214 1175 1192 1164 1310 1424 1561 1571 1422 1434 1523 1491 1354 1283 1139 1015 904 956 888 898 925 941 976 937 810 660 574 492 506 578 615
2 541 277 399 718 867 895 911 968 1130 1519 1381 1286 1245 1255 1223 1284 1505 1594 1542 1545 1544 1516 1429 1355 1358 1300 1241 1064 1024 966 881 898 916 889 814 716 660 641 601 648 637 594
68 837 674 509 652 758 863 949 1037 1268 1556 1577 1386 1298 1208 994 1064 1474 1477 1485 1463 1513 1540 1391 1455 1482 1304 1114 1032 991 927 878 850 715 717 649 861 783 663 462 561 607 557
131 923 1244 721 637 822 895 975 1122 1478 1738 1687 1540 1388 1121 961 1061 1016 1186 1330 1308 1468 1505 1472 1485 1477 1182 1034 998 928 859 712 688 675 589 633 739 789 646 658 612 584 509
97 591 1533 687 641 824 949 1096 1378 1744 1823 1786 1769 1432 940 844 739 216 374 541 990 1669 1482 1578 1488 1367 1093 988 902 814 699 613 643 546 557 555 578 668 729 556 320 296 415
101 341 1211 721 775 897 938 1136 1412 1715 1810 1761 1759 1419 881 533 205 86 44 326 390 984 1322 1532 1526 1163 1001 913 802 684 634 556 546 538 511 505 498 621 598 469 463 283 274
151 873 1324 626 834 944 1066 1112 1346 1693 1655 1755 1768 1550 700 273 102 122 123 211 159 425 1124 1403 1270 1028 931 790 677 574 456 508 606 530 633 605 648 576 511 331 252 215 176
667 1314 1470 810 874 976 1125 1070 1358 1642 1721 1752 1672 1348 470 19 0 4 241 210 136 413 1068 1233 988 849 766 681 577 482 345 334 598 404 473 495 339 336 221 123 54 24 18
1403 1619 1690 1337 1159 1022 1097 1023 1256 1476 1596 1716 1598 1267 604 114 32 0 26 106 156 708 1077 946 791 694 627 494 445 337 285 358 537 446 408 224 56 9 0 0 0 0 0
1679 1668 1772 1669 1639 1646 1493 1075 1085 1374 1326 1459 1297 1073 528 199 20 1 171 373 457 870 972 782 598 511 453 370 329 222 223 267 467 388 378 173 11 2 0 0 0 0 0
1639 1694 1633 1743 1877 1917 1784 1456 1026 1074 1212 1228 1242 978 450 419 6 311 600 538 668 854 744 474 393 317 260 246 228 161 158 402 305 255 254 6 0 5 1 0 0 0 0
1411 1687 1664 1769 1929 2051 1682 1756 1384 1430 1379 1219 1418 1182 1030 735 633 716 664 543 526 437 265 246 176 101 177 348 209 122 232 309 198 203 95 2 2 3 6 2 3 0 6
1073 1472 1676 1866 1976 2019 1914 1935 1533 1526 1409 1620 1304 1282 998 757 720 708 555 483 491 312 196 171 63 148 240 339 335 267 246 309 254 73 4 0 3 2 5 12 6 1 7
367 1427 1711 1746 1967 2187 1831 1692 1609 1703 1480 1517 1563 1455 865 828 642 485 147 62 350 417 417 240 252 254 340 339 340 284 147 165 28 62 0 0 7 14 18 15 9 6 8
0 536 1604 1778 1995 2222 1881 1504 1451 1782 1725 1628 1516 1479 926 702 579 361 182 167 341 453 435 290 218 306 300 267 251 144 37 22 15 49 2 0 12 11 10 18 10 6 10
0 202 1053 1808 1929 2246 1701 1573 1658 1523 1494 1718 1627 1499 1143 783 589 492 361 232 126 330 275 119 194 278 191 170 152 43 33 21 2 26 3 9 10 1 8 23 16 4 4
0 7 668 1458 1931 2117 1738 1533 1499 1297 1329 1508 1290 1474 1130 843 684 504 357 192 227 363 111 33 54 118 131 103 41 49 42 26 3 4 1 9 15 12 18 15 16 11 7
0 0 121 739 1713 2016 2008 1670 1350 1135 1167 1267 992 1121 1063 741 687 561 441 342 248 206 52 18 56 47 50 77 77 27 23 21 7 3 9 6 9 12 10 8 10 7 5
0 0 0 660 1261 1930 1876 1491 1342 1264 1174 1108 1007 745 816 600 508 414 361 462 237 220 118 38 35 15 4 52 48 67 34 23 10 2 19 3 1 8 6 1 6 5 1
0 0 0 226 1161 1764 1758 1471 1351 1203 806 778 790 687 588 579 396 203 311 320 370 171 74 7 18 25 32 54 46 50 20 25 18 2 6 13 2 8 0 0 0 1 0
0 0 0 147 1066 1617 1484 1505 1018 885 476 478 508 429 437 357 165 270 104 142 85 99 52 22 27 19 36 108 63 42 37 12 24 3 4 5 13 9 21 1 0 0 0
0 72 103 336 910 1437 1243 935 912 929 813 803 472 270 168 90 169 106 77 31 9 43 45 12 28 3 24 137 32 28 32 23 17 5 2 3 12 5 14 18 3 1 2
0 103 250 393 692 1261 712 738 945 876 581 321 148 192 172 31 10 2 7 17 16 29 6 15 26 3 13 40 50 1 13 16 18 15 2 4 8 8 5 8 5 5 10
0 100 356 415 622 1203 655 865 1083 737 409 383 281 196 121 89 25 3 2 5 3 6 22 13 33 23 28 41 45 32 21 1 0 15 8 4 9 5 5 6 2 1 1
0 119 546 586 701 1065 1025 951 990 1024 641 376 208 236 192 77 40 6 3 2 4 4 5 12 0 41 31 51 49 35 43 37 0 0 3 2 1 2 2 2 2 0 0
156 547 683 611 855 1000 1044 1110 993 965 624 387 257 206 193 106 141 51 5 3 1 1 2 1 2 31 37 29 59 86 52 47 8 27 6 4 0 0 0 0 0 4 8
CIN
-64 -219 -333 -296 -273 -249 -232 -196 -162 -98 -68 -70 -68 -67 -62 -69 -46 -25 -6 -4 -7 -3 0 0 -2 -2 -10 -20 -32 -28 -29 -20 -16 -16 -8 -1 -1 -8 -11 -7 -3 0 -1
-89 -141 -325 -307 -288 -262 -225 -196 -159 -105 -42 -45 -56 -57 -52 -54 -40 -4 -1 -2 -1 -1 -1 0 -1 0 -4 -5 -16 -18 -24 -27 -20 -10 -3 0 0 -2 -3 -3 -3 0 -2
-133 -103 -243 -293 -283 -262 -224 -187 -152 -89 -49 -36 -53 -53 -47 -46 -42 -5 -5 -4 -3 -1 0 0 0 0 -2 -11 -18 -20 -22 -25 -20 -23 -10 -1 -1 -2 -7 -21 -5 -3 -2
-97 -78 -139 -318 -275 -248 -225 -186 -147 -77 -33 -41 -44 -38 -38 -43 -23 -17 -6 -8 -4 -2 0 0 0 0 -11 -23 -25 -24 -28 -38 -24 -15 -2 0 -1 -1 -9 -2 -1 -1 -1
-81 -37 -126 -298 -275 -247 -216 -177 -126 -56 -35 -35 -19 -25 -27 -22 -9 -1 -8 -5 -5 0 -1 0 0 0 -11 -25 -38 -38 -37 -32 -14 -9 -1 -1 0 0 0 -3 -8 -5 -1
-66 -43 -249 -283 -271 -237 -216 -168 -118 -62 -40 -30 -18 -16 -15 -4 -25 -44 -63 -3 -1 -11 -5 0 0 -16 -28 -32 -38 -46 -36 -24 -20 -1 -3 -1 -1 0 0 -6 -5 -8 -6
-65 -60 -201 -299 -268 -231 -196 -164 -118 -57 -49 -29 -12 -3 -10 -72 -116 -80 -39 -23 -3 -3 -6 -3 -12 -22 -28 -40 -40 -42 -33 -26 -1 -11 0 0 0 0 0 -8 -12 -8 -1
-66 -93 -200 -296 -266 -230 -196 -164 -105 -54 -37 -25 -10 -10 -78 -145 0 -138 -84 -50 -102 -15 -9 -17 -44 -44 -34 -34 -42 -39 -32 -27 -2 -3 -3 0 -2 -4 -8 -8 -16 -58 -98
-87 -117 -162 -208 -217 -234 -209 -188 -106 -61 -41 -14 -7 -13 -64 -158 -177 0 -185 -98 -91 -3 -16 -35 -46 -46 -45 -46 -38 -38 -27 -11 0 -16 -3 -2 -18 -35 0 0 0 0 0
-82 -112 -126 -136 -156 -151 -155 -200 -140 -63 -51 -20 -11 -26 -75 -124 -170 -8 -115 -71 -46 -13 -21 -32 -54 -53 -48 -52 -39 -37 -30 -14 -12 -1 -1 -2 -32 0 0 0 0 0 0
-72 -85 -96 -92 -101 -110 -107 -135 -163 -105 -47 -32 -20 -24 -73 -44 -29 -61 -4 -21 -22 -22 -25 -51 -64 -73 -52 -48 -49 -38 -25 -1 -5 0 0 -26 0 0 0 0 0 0 0
-65 -71 -73 -74 -69 -73 -118 -95 -110 -64 -35 -26 -2 -5 -5 -1 -5 -9 -2 -20 -33 -26 -32 -48 -58 -64 -41 -5 -26 -27 -1 -1 -3 -8 -2 -8 -2 0 0 0 0 0 -1
-48 -71 -67 -65 -59 -58 -90 -75 -86 -64 -38 -4 -5 0 0 -1 -4 -1 -3 -3 -11 -24 -9 -31 -58 -15 -11 0 -3 -1 -1 -3 -4 -15 -2 -2 -1 0 -1 0 0 -1 -1
-45 -60 -77 -62 -64 -62 -81 -93 -60 -53 -21 -5 -1 -1 -2 -1 -2 -3 -3 -23 -4 -1 -1 -2 -4 -8 0 -1 0 -1 -9 -2 -1 -21 0 0 -2 0 0 -1 -1 -1 -1
0 -46 -67 -72 -61 -76 -82 -97 -75 -52 -24 -8 -1 0 -1 -1 -1 -1 -2 -5 -2 -1 0 -4 -8 -1 -1 -1 -1 -7 -1 -1 -2 -7 -1 0 -8 -1 -2 -1 -1 -1 0
0 -50 -71 -90 -63 -45 -126 -124 -83 -79 -63 -24 -8 0 0 -1 -5 -1 -4 -2 -7 -1 -2 -19 -9 0 -4 -1 -2 -2 -1 -2 -1 -1 -4 -9 -8 -3 -5 -2 -2 0 0
0 -93 -72 -98 -80 -50 -135 -126 -119 -85 -74 -53 -43 -1 0 0 -2 -1 -1 -3 -1 -1 -7 -54 -13 -8 -9 -5 -6 -2 -2 -1 -1 -1 -2 0 -8 -7 -11 -4 -4 -2 -1
0 0 -107 -91 -99 -67 -89 -97 -123 -141 -100 -75 -92 -23 0 0 0 -1 -2 -1 -1 0 -9 -33 -3 -10 -13 -4 -2 -3 -2 -2 0 0 -1 -1 -1 -1 -10 -8 -7 -3 -1
0 0 0 -112 -109 -68 -75 -92 -113 -140 -103 -95 -92 -96 -18 -1 0 0 -1 0 -2 -1 0 -8 -10 -21 -16 -16 -6 -4 -4 -2 0 -1 -1 -1 -1 -1 0 -7 -3 -2 -1
0 0 0 -145 -123 -73 -76 -95 -109 -124 -186 -156 -120 -113 -72 -16 -2 -1 -1 0 0 0 -3 -30 -28 -17 -11 -11 -10 -4 -11 -9 -1 -1 -1 -2 -2 -1 -1 0 0 -1 0
0 0 0 -172 -143 -98 -113 -122 -210 -210 -266 -215 -177 -147 -106 -65 -46 0 -11 -1 -2 -2 -2 -28 -13 -13 -5 -7 -10 -10 -3 -9 -2 -1 -1 -2 -1 -2 -1 -1 0 0 0
0 -209 -206 -164 -163 -128 -173 -234 -218 -157 -184 -129 -168 -185 -182 -150 -64 -23 -8 -13 -13 -19 -1 -13 -1 -15 -15 -5 -8 -7 0 -3 -6 -1 -1 -1 -1 -1 -2 0 -1 0 -2
0 -181 -175 -166 -170 -154 -290 -232 -157 -136 -209 -251 -281 -208 -183 -221 -97 -6 -10 0 -1 0 -11 -29 -2 -49 -21 -9 -5 0 -1 -1 -1 -2 -1 -2 -2 -1 -1 -1 0 0 -1
0 -174 -159 -162 -164 -182 -284 -201 -133 -184 -279 -257 -243 -228 -198 -174 -203 0 0 -1 -2 -1 0 -23 -1 -32 -16 -8 -5 -3 -7 -1 0 -1 -1 -2 -2 -1 -1 0 -1 0 0
0 -177 -154 -140 -147 -197 -201 -178 -150 -96 -185 -231 -242 -188 -166 -181 -172 -13 -17 0 -1 -14 0 -29 -1 -8 -12 -6 -11 -7 -1 -1 -1 0 -1 -1 -3 -1 -1 -1 -1 0 0
-93 -135 -176 -166 -108 -148 -165 -128 -148 -106 -147 -190 -235 -199 -154 -135 -72 -111 0 0 0 0 -5 -20 -48 -22 -8 -3 -6 -7 0 -2 -48 -1 -1 0 0 0 0 0 -2 -9 -1
Wind_Speed
13 14 13 12 11 10 9 8 7 6 5 5 5 5 5 5 6 6 8 9 9 8 7 5 2 2 4 5 5 4 5 6 7 9 11 12 12 13 14 15 15 15 15
13 13 13 13 12 12 10 9 8 6 6 6 5 5 4 4 4 3 5 6 7 9 8 5 3 2 2 3 3 4 6 7 8 10 11 11 10 10 11 12 14 14 14
12 13 13 13 13 13 12 11 10 8 8 7 6 6 7 6 5 5 5 6 7 8 8 5 4 3 3 3 4 5 6 8 9 11 12 9 9 10 11 12 12 12 13
11 12 13 13 14 14 13 12 11 10 9 9 8 7 6 7 6 8 6 6 7 7 9 7 3 2 3 3 3 4 4 7 9 9 7 9 8 9 10 11 11 11 11
11 12 12 12 13 13 13 12 11 11 10 9 8 7 7 6 4 14 16 2 4 11 11 8 5 2 1 2 2 2 3 4 6 5 7 8 8 8 9 10 11 11 11
11 11 11 11 12 12 13 12 11 10 9 9 8 8 7 6 7 9 23 4 11 7 13 8 6 4 2 1 1 3 3 2 4 5 5 7 7 8 8 9 10 10 10
9 10 9 10 10 11 12 11 10 10 9 8 8 7 8 9 12 10 5 5 22 13 4 7 4 4 2 2 2 3 2 3 4 4 4 5 7 9 8 8 9 10 9
7 8 8 8 9 10 10 10 10 9 8 8 7 7 9 10 6 7 12 2 7 13 8 6 6 3 1 2 2 2 5 11 7 2 4 5 6 7 6 8 7 8 9
5 6 6 7 7 8 9 9 8 8 8 7 7 7 7 8 3 4 3 1 3 3 3 4 5 7 4 3 3 4 8 11 4 4 3 4 4 5 5 6 7 8 8
3 4 5 5 5 6 7 8 7 7 7 6 6 5 4 5 4 7 3 5 6 2 1 1 2 4 5 4 3 6 9 7 7 4 3 2 3 4 5 6 6 7 7
3 2 3 3 4 5 6 7 6 5 6 6 5 4 2 2 6 2 8 4 3 3 3 3 1 2 3 3 4 8 9 9 6 6 4 2 2 4 5 6 6 6 6
3 1 1 2 3 4 4 5 5 5 5 4 5 4 3 1 2 4 4 4 3 2 5 6 3 1 6 4 9 11 11 10 9 7 4 2 2 5 5 5 5 5 6
7 2 2 1 0 2 3 4 4 4 5 4 4 4 3 2 2 5 1 3 2 10 9 5 4 4 6 6 11 13 13 11 10 5 3 3 4 4 4 4 4 4 6
9 5 4 3 2 0 1 2 3 3 4 4 3 3 2 1 5 6 4 6 2 11 7 7 8 4 5 8 11 11 12 16 11 7 5 4 2 5 4 5 5 5 6
13 8 7 6 4 2 4 1 2 2 2 2 3 3 3 2 5 6 4 3 3 7 8 5 9 5 7 10 9 11 12 14 10 6 5 3 1 4 5 7 5 5 5
18 13 9 8 7 4 5 4 2 1 1 1 1 1 4 3 5 9 6 4 5 7 14 13 12 9 10 9 11 12 11 11 9 8 2 4 0 1 2 4 4 4 4
19 16 12 10 9 8 6 6 4 3 1 0 1 0 3 5 8 8 8 6 5 8 11 12 20 18 10 10 8 9 10 10 9 8 3 3 3 1 2 3 2 4 4
21 14 13 11 11 10 8 7 6 4 3 1 1 1 3 4 6 8 8 8 8 4 7 13 13 16 18 12 10 12 13 9 7 9 5 3 3 1 0 1 1 3 3
18 18 14 11 11 11 10 8 7 4 5 2 0 1 1 3 5 7 9 8 10 8 7 11 15 14 15 16 8 13 15 10 8 7 4 4 2 1 2 3 2 2 3
17 17 18 12 11 11 11 10 8 6 6 4 2 2 1 2 4 6 8 9 9 10 9 13 15 16 13 14 11 13 16 10 11 9 8 5 2 3 4 2 3 4 4
18 18 17 12 11 11 12 12 10 8 7 6 4 3 3 4 4 7 9 10 10 12 11 14 15 15 17 16 14 15 15 13 16 9 8 7 4 7 5 4 5 5 4
20 18 16 12 12 12 13 12 10 9 7 8 5 5 5 5 5 7 9 12 11 9 13 18 19 20 17 19 18 17 13 15 17 8 8 8 7 10 11 9 6 7 3
20 19 17 13 12 12 12 11 10 9 10 10 9 6 5 4 7 7 10 11 12 12 13 18 22 21 19 19 20 20 15 15 11 11 10 11 13 15 14 12 11 10 10
20 18 18 14 12 12 12 12 12 9 10 10 8 5 7 5 6 7 10 13 12 12 17 18 22 25 21 19 22 22 20 14 12 14 12 18 17 17 16 14 11 11 10
21 17 18 16 13 12 13 13 12 10 9 9 8 7 6 5 6 7 10 13 14 14 17 18 24 26 24 22 22 22 19 17 12 12 15 19 19 18 16 17 13 12 11
16 17 19 20 15 12 13 13 12 10 10 10 9 10 9 6 6 8 9 13 14 15 17 21 24 32 28 25 23 23 21 18 16 15 16 18 17 17 15 13 14 13 12
Wind_Direction
35 50 57 49 43 41 39 45 58 82 102 102 103 100 99 101 101 94 93 93 88 84 82 72 45 335 309 312 312 334 2 12 29 43 53 56 56 54 56 59 55 56 55
48 52 55 48 45 43 52 57 57 65 99 111 112 118 121 125 124 117 109 104 97 96 85 72 51 2 6 359 12 28 42 50 53 56 57 54 46 42 44 50 52 54 53
48 52 58 54 53 52 55 53 56 69 99 116 123 130 137 141 152 159 147 130 111 101 89 79 58 54 49 53 55 52 57 62 66 68 71 53 46 48 50 49 53 53 52
54 55 60 65 56 52 51 55 62 74 94 113 127 133 140 152 163 175 170 163 128 108 97 87 66 44 75 73 64 60 64 68 73 67 34 51 48 42 47 48 48 47 43
60 64 61 72 61 55 50 49 57 73 89 102 112 129 136 138 163 290 220 359 236 112 100 90 86 72 70 69 69 72 75 75 67 17 46 43 46 43 49 49 52 50 45
70 61 64 70 57 55 51 51 59 72 84 94 99 118 112 44 21 313 250 329 229 106 99 84 76 83 83 74 96 100 96 71 322 9 34 45 39 52 43 48 48 42 38
71 52 57 74 64 53 46 47 52 63 81 88 95 93 87 76 79 62 294 308 250 256 37 85 68 79 97 123 138 131 141 286 342 343 22 31 52 63 54 39 35 39 33
63 46 55 76 73 59 49 42 47 56 76 88 89 92 104 114 93 76 131 58 90 123 94 82 89 98 188 177 177 199 248 266 279 354 17 38 64 59 35 33 20 23 30
44 47 58 71 79 63 54 43 50 61 72 82 96 100 117 132 57 85 342 315 125 114 86 84 89 105 119 201 218 235 255 265 290 303 355 43 61 42 24 19 23 25 27
32 49 51 70 74 65 56 49 56 56 69 75 86 106 113 125 105 116 54 137 128 133 237 12 88 117 127 148 202 241 255 268 279 301 316 28 45 21 9 3 17 22 20
341 49 54 65 78 69 58 44 57 65 60 61 80 100 70 76 141 28 134 124 129 148 278 291 90 165 197 186 213 241 246 269 275 296 305 68 14 353 353 355 359 19 13
296 258 36 37 77 79 55 43 65 68 83 86 92 99 125 119 156 156 149 139 142 264 295 296 277 194 156 209 240 242 254 266 270 285 302 336 352 343 353 356 14 17 12
287 267 256 296 55 85 48 43 41 77 81 97 118 117 163 294 174 162 205 145 258 285 289 272 281 165 155 224 237 245 256 259 266 287 296 293 316 359 30 14 14 13 26
283 268 270 259 227 234 74 106 69 105 88 63 87 107 113 144 172 174 182 158 249 278 274 262 260 232 224 235 239 244 254 257 268 290 291 285 348 70 49 54 46 43 43
284 274 265 260 232 237 190 158 139 87 98 69 49 70 127 166 173 179 222 189 246 258 259 246 255 209 233 239 238 246 255 263 269 287 296 266 332 76 72 79 62 51 35
284 277 267 257 246 230 224 221 260 161 127 50 41 59 162 189 196 189 208 223 189 251 260 260 251 222 235 232 245 251 254 262 266 282 292 270 125 16 66 73 62 45 39
280 280 264 257 250 226 242 232 242 226 230 243 312 358 177 187 193 197 197 221 199 263 256 260 245 244 226 240 239 245 252 260 262 267 282 256 263 87 87 67 20 49 41
278 273 268 258 248 228 242 224 228 225 224 271 317 309 197 192 202 203 205 228 252 221 234 247 237 240 244 243 242 246 252 254 258 259 261 244 241 154 354 348 357 46 27
275 280 277 257 247 234 241 228 230 236 215 264 312 323 221 208 209 216 216 226 242 239 220 234 242 244 239 244 230 241 250 247 250 253 236 241 245 196 272 278 303 325 332
276 280 282 264 247 238 241 231 237 257 257 283 268 317 288 242 218 220 232 229 231 237 231 237 245 237 227 236 230 235 244 244 253 250 252 242 215 225 271 263 283 298 302
276 279 277 261 245 233 223 223 231 225 263 280 287 298 289 307 249 219 247 240 227 237 224 229 236 212 237 235 227 228 242 246 257 247 246 249 242 262 266 277 282 296 298
274 274 273 257 243 226 229 237 244 241 262 283 293 302 298 279 273 237 244 253 240 219 217 231 232 228 237 238 223 222 230 249 256 241 243 246 255 258 265 275 277 290 310
270 270 268 258 241 228 231 232 238 250 286 285 297 300 298 282 274 241 243 244 244 249 214 218 228 220 229 225 222 224 227 247 227 252 245 251 255 260 264 268 274 282 291
269 271 267 260 241 228 222 220 218 227 260 275 291 288 295 277 272 237 236 240 244 230 218 225 227 227 219 217 226 232 242 246 215 242 248 254 256 258 263 268 271 276 288
272 268 268 261 241 229 221 219 225 225 267 286 289 304 297 286 255 240 232 244 247 226 213 220 228 227 224 224 225 228 237 257 215 242 245 250 255 258 261 267 275 278 286
278 274 272 264 248 237 226 220 223 231 266 283 292 303 303 291 276 258 232 254 246 245 236 219 229 227 229 229 228 231 238 244 237 251 255 251 251 256 260 264 269 281 287